Time,TemperatureF,DewpointF,PressureIn,WindDirection,WindDirectionDegrees,WindSpeedMPH,WindSpeedGustMPH,Humidity,HourlyPrecipIn,Conditions,Clouds,dailyrainin,SolarRadiationWatts/m^2,SoftwareType,DateUTC
2013-06-09 00:03:00,51.0,47.0,-100.00,ESE,118,4.0,11.0,85,0.00,,,0.00,0.000000,,2013-06-09 10:03:00,
2013-06-09 00:12:00,51.0,47.0,-100.00,ESE,118,4.0,11.0,85,0.00,,,0.00,0.000000,,2013-06-09 10:12:00,
2013-06-09 00:23:00,51.0,47.0,-100.00,ESE,118,4.0,11.0,85,0.00,,,0.00,0.000000,,2013-06-09 10:23:00,
2013-06-09 00:32:00,51.0,47.0,-100.00,ESE,118,4.0,11.0,85,0.00,,,0.00,0.000000,,2013-06-09 10:32:00,
2013-06-09 00:52:00,51.0,47.0,-100.00,SE,135,4.0,11.0,87,0.00,,,0.00,0.000000,,2013-06-09 10:52:00,
2013-06-09 01:02:00,51.0,47.0,-100.00,SE,135,4.0,11.0,87,0.00,,,0.00,0.000000,,2013-06-09 11:02:00,
2013-06-09 01:12:00,51.0,47.0,-100.00,SE,135,4.0,11.0,87,0.00,,,0.00,0.000000,,2013-06-09 11:12:00,
2013-06-09 01:22:00,51.0,47.0,-100.00,SE,135,4.0,11.0,87,0.00,,,0.00,0.000000,,2013-06-09 11:22:00,
2013-06-09 01:32:00,51.0,47.0,-100.00,SE,135,4.0,11.0,87,0.00,,,0.00,0.000000,,2013-06-09 11:32:00,
2013-06-09 01:52:00,50.0,48.0,-100.00,East,81,5.0,8.0,92,0.00,,,0.00,0.000000,,2013-06-09 11:52:00,
2013-06-09 02:02:00,50.0,48.0,-100.00,East,81,5.0,8.0,92,0.00,,,0.00,0.000000,,2013-06-09 12:02:00,
2013-06-09 02:12:00,50.0,48.0,-100.00,East,81,5.0,8.0,92,0.00,,,0.00,0.000000,,2013-06-09 12:12:00,
2013-06-09 02:22:00,50.0,48.0,-100.00,East,81,5.0,8.0,92,0.00,,,0.00,0.000000,,2013-06-09 12:22:00,
2013-06-09 02:32:00,50.0,48.0,-100.00,East,81,5.0,8.0,92,0.00,,,0.00,0.000000,,2013-06-09 12:32:00,
2013-06-09 02:52:00,50.0,47.0,-100.00,East,81,0.0,6.0,91,0.00,,,0.00,0.000000,,2013-06-09 12:52:00,
2013-06-09 03:02:00,50.0,47.0,-100.00,East,81,0.0,6.0,91,0.00,,,0.00,0.000000,,2013-06-09 13:02:00,
2013-06-09 03:12:00,50.0,47.0,-100.00,East,81,0.0,6.0,91,0.00,,,0.00,0.000000,,2013-06-09 13:12:00,
2013-06-09 03:22:00,50.0,47.0,-100.00,East,81,0.0,6.0,91,0.00,,,0.00,0.000000,,2013-06-09 13:22:00,
2013-06-09 03:32:00,50.0,47.0,-100.00,East,81,0.0,6.0,91,0.00,,,0.00,0.000000,,2013-06-09 13:32:00,
2013-06-09 03:52:00,51.0,49.0,-100.00,ENE,64,3.0,5.0,94,0.00,,,0.00,0.000000,,2013-06-09 13:52:00,
2013-06-09 04:02:00,51.0,49.0,-100.00,ENE,64,3.0,5.0,94,0.00,,,0.00,0.000000,,2013-06-09 14:02:00,
2013-06-09 04:12:00,51.0,49.0,-100.00,ENE,64,3.0,5.0,94,0.00,,,0.00,0.000000,,2013-06-09 14:12:00,
2013-06-09 04:22:00,51.0,49.0,-100.00,ENE,64,3.0,5.0,94,0.00,,,0.00,0.000000,,2013-06-09 14:22:00,
2013-06-09 04:32:00,51.0,49.0,-100.00,ENE,64,3.0,5.0,94,0.00,,,0.00,0.000000,,2013-06-09 14:32:00,
2013-06-09 04:52:00,52.0,49.0,-100.00,North,358,3.0,10.0,91,0.00,,,0.00,0.000000,,2013-06-09 14:52:00,
2013-06-09 05:02:00,52.0,49.0,-100.00,North,358,3.0,10.0,91,0.00,,,0.00,0.000000,,2013-06-09 15:02:00,
2013-06-09 05:12:00,52.0,49.0,-100.00,North,358,3.0,10.0,91,0.00,,,0.00,0.000000,,2013-06-09 15:12:00,
2013-06-09 05:22:00,52.0,49.0,-100.00,North,358,3.0,10.0,91,0.00,,,0.00,0.000000,,2013-06-09 15:22:00,
2013-06-09 05:32:00,52.0,49.0,-100.00,North,358,3.0,10.0,91,0.00,,,0.00,0.000000,,2013-06-09 15:32:00,
2013-06-09 05:33:00,54.0,51.0,-100.00,North,4,3.0,11.0,91,0.00,,,0.00,0.000000,,2013-06-09 15:33:00,
2013-06-09 05:53:00,54.0,51.0,-100.00,North,4,3.0,11.0,91,0.00,,,0.00,0.000000,,2013-06-09 15:53:00,
2013-06-09 06:03:00,54.0,51.0,-100.00,North,4,3.0,11.0,91,0.00,,,0.00,0.000000,,2013-06-09 16:03:00,
2013-06-09 06:13:00,54.0,51.0,-100.00,North,4,3.0,11.0,91,0.00,,,0.00,0.000000,,2013-06-09 16:13:00,
2013-06-09 06:23:00,54.0,51.0,-100.00,North,4,3.0,11.0,91,0.00,,,0.00,0.000000,,2013-06-09 16:23:00,
2013-06-09 06:53:00,54.0,44.0,-100.00,ENE,58,3.0,10.0,69,0.00,,,0.00,0.000000,,2013-06-09 16:53:00,
2013-06-09 07:02:00,54.0,44.0,-100.00,ENE,58,3.0,10.0,69,0.00,,,0.00,0.000000,,2013-06-09 17:02:00,
2013-06-09 07:12:00,54.0,44.0,-100.00,ENE,58,3.0,10.0,69,0.00,,,0.00,0.000000,,2013-06-09 17:12:00,
2013-06-09 07:22:00,54.0,44.0,-100.00,ENE,58,3.0,10.0,69,0.00,,,0.00,0.000000,,2013-06-09 17:22:00,
2013-06-09 07:32:00,54.0,44.0,-100.00,ENE,58,3.0,10.0,69,0.00,,,0.00,0.000000,,2013-06-09 17:32:00,
2013-06-09 07:52:00,61.0,51.0,-100.00,SW,214,3.0,13.0,69,0.00,,,0.00,38.000000,,2013-06-09 17:52:00,
2013-06-09 08:02:00,61.0,51.0,-100.00,SW,214,3.0,13.0,69,0.00,,,0.00,38.000000,,2013-06-09 18:02:00,
2013-06-09 08:12:00,61.0,51.0,-100.00,SW,214,3.0,13.0,69,0.00,,,0.00,38.000000,,2013-06-09 18:12:00,
2013-06-09 08:21:00,61.0,51.0,-100.00,SW,214,3.0,13.0,69,0.00,,,0.00,38.000000,,2013-06-09 18:21:00,
2013-06-09 08:32:00,61.0,51.0,-100.00,SW,214,3.0,13.0,69,0.00,,,0.00,38.000000,,2013-06-09 18:32:00,
2013-06-09 08:52:00,64.0,55.0,-100.00,West,274,6.0,9.0,73,0.00,,,0.00,357.000000,,2013-06-09 18:52:00,
2013-06-09 09:02:00,64.0,55.0,-100.00,West,274,6.0,9.0,73,0.00,,,0.00,357.000000,,2013-06-09 19:02:00,
2013-06-09 09:12:00,64.0,55.0,-100.00,West,274,6.0,9.0,73,0.00,,,0.00,357.000000,,2013-06-09 19:12:00,
2013-06-09 09:22:00,64.0,55.0,-100.00,West,274,6.0,9.0,73,0.00,,,0.00,357.000000,,2013-06-09 19:22:00,
2013-06-09 09:32:00,64.0,55.0,-100.00,West,274,6.0,9.0,73,0.00,,,0.00,357.000000,,2013-06-09 19:32:00,
2013-06-09 09:52:00,64.0,57.0,-100.00,West,277,5.0,10.0,77,0.00,,,0.00,635.000000,,2013-06-09 19:52:00,
2013-06-09 10:02:00,64.0,57.0,-100.00,West,277,5.0,10.0,77,0.00,,,0.00,635.000000,,2013-06-09 20:02:00,
2013-06-09 10:12:00,64.0,57.0,-100.00,West,277,5.0,10.0,77,0.00,,,0.00,635.000000,,2013-06-09 20:12:00,
2013-06-09 10:22:00,64.0,57.0,-100.00,West,277,5.0,10.0,77,0.00,,,0.00,635.000000,,2013-06-09 20:22:00,
2013-06-09 10:32:00,64.0,57.0,-100.00,West,277,5.0,10.0,77,0.00,,,0.00,635.000000,,2013-06-09 20:32:00,
2013-06-09 10:33:00,62.0,57.0,-100.00,SW,232,3.0,8.0,83,0.00,,,0.00,656.000000,,2013-06-09 20:33:00,
2013-06-09 10:52:00,62.0,57.0,-100.00,SW,232,3.0,8.0,83,0.00,,,0.00,656.000000,,2013-06-09 20:52:00,
2013-06-09 11:02:00,62.0,57.0,-100.00,SW,232,3.0,8.0,83,0.00,,,0.00,656.000000,,2013-06-09 21:02:00,
2013-06-09 11:12:00,62.0,57.0,-100.00,SW,232,3.0,8.0,83,0.00,,,0.00,656.000000,,2013-06-09 21:12:00,
2013-06-09 11:22:00,62.0,57.0,-100.00,SW,232,3.0,8.0,83,0.00,,,0.00,656.000000,,2013-06-09 21:22:00,
2013-06-09 11:33:00,66.0,59.0,-100.00,NW,310,4.0,9.0,77,0.00,,,0.00,457.000000,,2013-06-09 21:33:00,
2013-06-09 11:53:00,66.0,59.0,-100.00,NW,310,4.0,9.0,77,0.00,,,0.00,457.000000,,2013-06-09 21:53:00,
2013-06-09 12:02:00,66.0,59.0,-100.00,NW,310,4.0,9.0,77,0.00,,,0.00,457.000000,,2013-06-09 22:02:00,
2013-06-09 12:13:00,66.0,59.0,-100.00,NW,310,4.0,9.0,77,0.00,,,0.00,457.000000,,2013-06-09 22:13:00,
2013-06-09 12:22:00,66.0,59.0,-100.00,NW,310,4.0,9.0,77,0.00,,,0.00,457.000000,,2013-06-09 22:22:00,
2013-06-09 12:52:00,66.0,58.0,-100.00,WNW,293,5.0,10.0,76,0.00,,,0.00,694.000000,,2013-06-09 22:52:00,
2013-06-09 13:02:00,66.0,58.0,-100.00,WNW,293,5.0,10.0,76,0.00,,,0.00,694.000000,,2013-06-09 23:02:00,
2013-06-09 13:12:00,66.0,58.0,-100.00,WNW,293,5.0,10.0,76,0.00,,,0.00,694.000000,,2013-06-09 23:12:00,
2013-06-09 13:22:00,66.0,58.0,-100.00,WNW,293,5.0,10.0,76,0.00,,,0.00,694.000000,,2013-06-09 23:22:00,
2013-06-09 13:32:00,66.0,58.0,-100.00,WNW,293,5.0,10.0,76,0.00,,,0.00,694.000000,,2013-06-09 23:32:00,
2013-06-09 13:52:00,64.0,59.0,-100.00,WSW,258,4.0,11.0,84,0.00,,,0.00,720.000000,,2013-06-09 23:52:00,
2013-06-09 14:02:00,64.0,59.0,-100.00,WSW,258,4.0,11.0,84,0.00,,,0.00,720.000000,,2013-06-10 00:02:00,
2013-06-09 14:12:00,64.0,59.0,-100.00,WSW,258,4.0,11.0,84,0.00,,,0.00,720.000000,,2013-06-10 00:12:00,
2013-06-09 14:22:00,64.0,59.0,-100.00,WSW,258,4.0,11.0,84,0.00,,,0.00,720.000000,,2013-06-10 00:22:00,
2013-06-09 14:32:00,64.0,59.0,-100.00,WSW,258,4.0,11.0,84,0.00,,,0.00,720.000000,,2013-06-10 00:32:00,
2013-06-09 14:52:00,63.0,61.0,-100.00,West,278,3.0,10.0,92,0.00,,,0.00,592.000000,,2013-06-10 00:52:00,
2013-06-09 15:02:00,63.0,61.0,-100.00,West,278,3.0,10.0,92,0.00,,,0.00,592.000000,,2013-06-10 01:02:00,
2013-06-09 15:12:00,63.0,61.0,-100.00,West,278,3.0,10.0,92,0.00,,,0.00,592.000000,,2013-06-10 01:12:00,
2013-06-09 15:22:00,63.0,61.0,-100.00,West,278,3.0,10.0,92,0.00,,,0.00,592.000000,,2013-06-10 01:22:00,
2013-06-09 15:32:00,63.0,61.0,-100.00,West,278,3.0,10.0,92,0.00,,,0.00,592.000000,,2013-06-10 01:32:00,
2013-06-09 15:52:00,61.0,60.0,-100.00,SW,221,2.0,9.0,97,0.00,,,0.00,271.000000,,2013-06-10 01:52:00,
2013-06-09 16:02:00,61.0,60.0,-100.00,SW,221,2.0,9.0,97,0.00,,,0.00,271.000000,,2013-06-10 02:02:00,
2013-06-09 16:12:00,61.0,60.0,-100.00,SW,221,2.0,9.0,97,0.00,,,0.00,271.000000,,2013-06-10 02:12:00,
2013-06-09 16:22:00,61.0,60.0,-100.00,SW,221,2.0,9.0,97,0.00,,,0.00,271.000000,,2013-06-10 02:22:00,
2013-06-09 16:32:00,61.0,60.0,-100.00,SW,221,2.0,9.0,97,0.00,,,0.00,271.000000,,2013-06-10 02:32:00,
2013-06-09 16:52:00,61.0,61.0,-100.00,WSW,257,2.0,6.0,100,0.00,,,0.00,179.000000,,2013-06-10 02:52:00,
2013-06-09 17:02:00,61.0,61.0,-100.00,WSW,257,2.0,6.0,100,0.00,,,0.00,179.000000,,2013-06-10 03:02:00,
2013-06-09 17:12:00,61.0,61.0,-100.00,WSW,257,2.0,6.0,100,0.00,,,0.00,179.000000,,2013-06-10 03:12:00,
2013-06-09 17:22:00,61.0,61.0,-100.00,WSW,257,2.0,6.0,100,0.00,,,0.00,179.000000,,2013-06-10 03:22:00,
2013-06-09 17:32:00,61.0,61.0,-100.00,WSW,257,2.0,6.0,100,0.00,,,0.00,179.000000,,2013-06-10 03:32:00,
2013-06-09 17:33:00,60.0,60.0,-100.00,West,278,0.0,7.0,100,0.00,,,0.00,153.000000,,2013-06-10 03:33:00,
2013-06-09 17:53:00,60.0,60.0,-100.00,West,278,0.0,7.0,100,0.00,,,0.00,153.000000,,2013-06-10 03:53:00,
2013-06-09 18:03:00,60.0,60.0,-100.00,West,278,0.0,7.0,100,0.00,,,0.00,153.000000,,2013-06-10 04:03:00,
2013-06-09 18:12:00,60.0,60.0,-100.00,West,278,0.0,7.0,100,0.00,,,0.00,153.000000,,2013-06-10 04:12:00,
2013-06-09 18:23:00,60.0,60.0,-100.00,West,278,0.0,7.0,100,0.00,,,0.00,153.000000,,2013-06-10 04:23:00,
2013-06-09 18:52:00,59.0,59.0,-100.00,South,183,0.0,5.0,100,0.00,,,0.00,64.000000,,2013-06-10 04:52:00,
2013-06-09 19:02:00,59.0,59.0,-100.00,South,183,0.0,5.0,100,0.00,,,0.00,64.000000,,2013-06-10 05:02:00,
2013-06-09 19:12:00,59.0,59.0,-100.00,South,183,0.0,5.0,100,0.00,,,0.00,64.000000,,2013-06-10 05:12:00,
2013-06-09 19:22:00,59.0,59.0,-100.00,South,183,0.0,5.0,100,0.00,,,0.00,64.000000,,2013-06-10 05:22:00,
2013-06-09 19:32:00,59.0,59.0,-100.00,South,183,0.0,5.0,100,0.00,,,0.00,64.000000,,2013-06-10 05:32:00,
2013-06-09 19:52:00,57.0,57.0,-100.00,NW,310,0.0,4.0,100,0.00,,,-99.99,48.000000,,2013-06-10 05:52:00,
2013-06-09 20:02:00,57.0,57.0,-100.00,NW,310,0.0,4.0,100,0.00,,,-99.99,48.000000,,2013-06-10 06:02:00,
2013-06-09 20:12:00,57.0,57.0,-100.00,NW,310,0.0,4.0,100,0.00,,,-99.99,48.000000,,2013-06-10 06:12:00,
2013-06-09 20:22:00,57.0,57.0,-100.00,NW,310,0.0,4.0,100,0.00,,,-99.99,48.000000,,2013-06-10 06:22:00,
2013-06-09 20:32:00,57.0,57.0,-100.00,NW,310,0.0,4.0,100,0.00,,,-99.99,48.000000,,2013-06-10 06:32:00,
2013-06-09 20:53:00,56.0,56.0,-100.00,WNW,282,0.0,3.0,100,0.00,,,0.00,0.000000,,2013-06-10 06:53:00,
2013-06-09 21:02:00,56.0,56.0,-100.00,WNW,282,0.0,3.0,100,0.00,,,0.00,0.000000,,2013-06-10 07:02:00,
2013-06-09 21:12:00,56.0,56.0,-100.00,WNW,282,0.0,3.0,100,0.00,,,0.00,0.000000,,2013-06-10 07:12:00,
2013-06-09 21:22:00,56.0,56.0,-100.00,WNW,282,0.0,3.0,100,0.00,,,0.00,0.000000,,2013-06-10 07:22:00,
2013-06-09 21:32:00,56.0,56.0,-100.00,WNW,282,0.0,3.0,100,0.00,,,0.00,0.000000,,2013-06-10 07:32:00,
2013-06-09 21:52:00,54.0,54.0,-100.00,SE,129,3.0,6.0,99,0.00,,,0.00,0.000000,,2013-06-10 07:52:00,
2013-06-09 22:02:00,54.0,54.0,-100.00,SE,129,3.0,6.0,99,0.00,,,0.00,0.000000,,2013-06-10 08:02:00,
2013-06-09 22:12:00,54.0,54.0,-100.00,SE,129,3.0,6.0,99,0.00,,,0.00,0.000000,,2013-06-10 08:12:00,
2013-06-09 22:22:00,54.0,54.0,-100.00,SE,129,3.0,6.0,99,0.00,,,0.00,0.000000,,2013-06-10 08:22:00,
2013-06-09 22:32:00,54.0,54.0,-100.00,SE,129,3.0,6.0,99,0.00,,,0.00,0.000000,,2013-06-10 08:32:00,
2013-06-09 22:52:00,52.0,47.0,-100.00,ENE,74,1.0,6.0,82,0.00,,,0.00,0.000000,,2013-06-10 08:52:00,
2013-06-09 23:02:00,52.0,47.0,-100.00,ENE,74,1.0,6.0,82,0.00,,,0.00,0.000000,,2013-06-10 09:02:00,
2013-06-09 23:12:00,52.0,47.0,-100.00,ENE,74,1.0,6.0,82,0.00,,,0.00,0.000000,,2013-06-10 09:12:00,
2013-06-09 23:22:00,52.0,47.0,-100.00,ENE,74,1.0,6.0,82,0.00,,,0.00,0.000000,,2013-06-10 09:22:00,
2013-06-09 23:32:00,52.0,47.0,-100.00,ENE,74,1.0,6.0,82,0.00,,,0.00,0.000000,,2013-06-10 09:32:00,
2013-06-09 23:33:00,53.0,42.0,-100.00,ESE,111,0.0,5.0,66,0.00,,,0.00,0.000000,,2013-06-10 09:33:00,
2013-06-09 23:53:00,53.0,42.0,-100.00,ESE,111,0.0,5.0,66,0.00,,,0.00,0.000000,,2013-06-10 09:53:00,